This demonstration page uses our WeatherBlox Daily Observations layout. Learn more.

Left ArrowRight Arrow

44.8408, -93.29828

Hourly Observations for November 23, 2020

Temp ( °F °C ) Dew Point ( °F °C ) Humidity (%) Winds ( mph kmh ) Pressure ( in mb ) Visibility ( mi km ) Precip ( " mm )
12:53 am 00:53 Clear 27 -2.8 22 -5.6 81 81 WNW 7 11 30.31 1026 10 16 0.00 0.00
1:53 am 01:53 Clear 27 -2.8 21 -6.1 78 78 W 5 7 30.30 1026 10 16 0.00 0.00
2:53 am 02:53 Clear 25 -3.9 21 -6.1 85 85 WNW 6 9 30.32 1027 10 16 0.00 0.00
3:53 am 03:53 Clear 25 -3.9 21 -6.1 85 85 NNW 6 9 30.33 1027 10 16 0.00 0.00
4:53 am 04:53 Clear 25 -3.9 21 -6.1 85 85 NNW 5 7 30.33 1027 10 16 0.00 0.00
5:53 am 05:53 Clear 24 -4.4 21 -6.1 88 88 NNW 3 6 30.34 1027 10 16 0.00 0.00
6:53 am 06:53 Clear 23 -5 20 -6.7 88 88 Calm 30.34 1027 10 16 0.00 0.00
7:53 am 07:53 Mostly Sunny 24 -4.4 20 -6.7 84 84 NE 5 7 30.35 1028 10 16 0.00 0.00
8:53 am 08:53 Mostly Sunny 27 -2.8 21 -6.1 78 78 E 5 7 30.36 1028 10 16 0.00 0.00
9:53 am 09:53 Mostly Sunny 29 -1.7 23 -5 78 78 E 6 9 30.37 1028 10 16 0.00 0.00
10:53 am 10:53 Mostly Sunny 31 -0.6 22 -5.6 69 69 SSE 7 11 30.36 1028 10 16 0.00 0.00
11:53 am 11:53 Mostly Sunny 33 0.6 23 -5 66 66 ESE 8 13 30.33 1027 10 16 0.00 0.00
12:53 pm 12:53 Sunny 34 1.1 23 -5 64 64 SE 8 13 30.31 1027 10 16 0.00 0.00
1:53 pm 13:53 Sunny 35 1.7 23 -5 61 61 SE 9 15 30.29 1026 10 16 0.00 0.00
2:53 pm 14:53 Sunny 36 2.2 24 -4.4 62 62 SSE 8 13 30.27 1025 10 16 0.00 0.00
3:53 pm 15:53 Sunny 35 1.7 23 -5 61 61 SSE 8 13 30.27 1025 10 16 0.00 0.00
4:53 pm 16:53 Clear 34 1.1 23 -5 64 64 ESE 9 15 30.25 1025 10 16 0.00 0.00
5:53 pm 17:53 Partly Cloudy 33 0.6 22 -5.6 64 64 ESE 8 13 30.24 1024 10 16 0.00 0.00
6:53 pm 18:53 Mostly Cloudy 33 0.6 23 -5 66 66 ESE 13 20 30.23 1024 10 16 0.00 0.00
7:53 pm 19:53 Partly Cloudy 31 -0.6 23 -5 72 72 SE 9 15 30.22 1023 10 16 0.00 0.00
8:53 pm 20:53 Mostly Clear 31 -0.6 22 -5.6 69 69 SE 8 13 30.21 1023 10 16 0.00 0.00
9:53 pm 21:53 Partly Cloudy 31 -0.6 23 -5 72 72 SE 12 19 30.19 1023 10 16 0.00 0.00
10:53 pm 22:53 Cloudy 30 -1.1 23 -5 75 75 SE 10 17 30.17 1022 10 16 0.00 0.00
11:53 pm 23:53 Cloudy 32 0 23 -5 69 69 SE 9 15 30.16 1022 10 16 0.00 0.00

Powered by AerisWeather